Location: Unspecified
(48.2082°N, 0.0000°E)
Time: 02:58:51
(UTC+00:00)

A-11 Canister half - Pass Details

Date: 25 June 2019
Orbit: 1514 x 1685 km, 47.2° (Epoch: 19 July)

Event Time Altitude Azimuth Distance (km) Brightness Sun altitude
Rises 12:22:40 0° 265° (W) 4,887 11.7 64.9°
Reaches altitude 10° 12:25:50 10° 265° (W) 3,881 11.4 64.8°
Maximum altitude 12:35:46 86° 178° (S) 1,607 10.8 64.3°
Drops below altitude 10° 12:45:19 10° 92° (E) 3,744 11.1 63.8°
Sets 12:48:19 0° 92° (E) 4,709 11.5 63.6°
